Starlink 32271

operational
NORAD ID: 60368 Int'l Des: 2024-138 Owner: SPXS Country: US Constellation: starlink
LEOCIRCULAR

About Starlink 32271

Description loading...

Live Position

Loading 3D Globe...

Upcoming Passes

Altitude History

Altitude vs Time

uPlot chart will show altitude changes over time

Two-Line Element Set

1 60368U 24138P 25260.60576640 -.00000182 00000-0 59873-5 0 9999
2 60368 53.1619 33.8491 0001024 94.5351 265.5766 15.30198328 64122
Epoch: Sep 17, 2025 • Age: 24 hours

Current Status

Altitude 475.3 km
Velocity 7.63 km/s
Sub-Earth Point 19.40°N, 24.74°W
Launch Date Aug 4, 2024
Age 1.1 years
Type internet

Technical Details

Classification Payload
Mass 730.00 kg
Dry Mass 700.00 kg
Total Mass 730.00 kg
Length 0.30 m
Diameter 4.10 m
Span 29.00 m
Shape Box + pan
Manufacturer SPXS
Bus Type Starlink V2M
Phase Status In Orbit
Owner/State SPXS/US

Large Constellations

Loading constellations...